This demonstration page uses our WeatherBlox Daily Observations layout. Learn more.

Hourly Observations for March 12, 2018

Temp ( °F °C ) Dew Point ( °F °C ) Humidity (%) Winds ( mph kmh ) Pressure ( in mb ) Visibility ( mi km ) Precip ( " mm )
12:15 am 00:15 Clear 22 -5.5 20 -6.6 92 92 ENE 3 6 30.53 1034 10 16.0934 0 0
12:35 am 00:35 Clear 21 -6.3 19 -7.4 92 92 NE 3 6 30.56 1035 10 16.0934 0 0
12:55 am 00:55 Clear 21 -6.1 20 -6.6 96 96 Calm 30.56 1035 10 16.0934 0 0
1:15 am 01:15 Clear 18 -8 16 -8.8 94 94 Calm 30.56 1035 10 16.0934 0 0
1:35 am 01:35 Clear 19 -7.1 19 -7.4 98 98 NNE 3 6 30.56 1035 7 11.26538 0 0
1:55 am 01:55 Clear 19 -7.4 18 -7.8 97 97 Calm 30.56 1035 10 16.0934 0 0
2:15 am 02:15 Clear 20 -6.8 19 -7 98 98 W 3 6 30.56 1035 10 16.0934 0 0
2:35 am 02:35 Clear 19 -7.5 17 -8.1 96 96 W 3 6 30.56 1035 10 16.0934 0 0
2:55 am 02:55 Clear 18 -7.8 17 -8.3 96 96 W 5 7 30.56 1035 10 16.0934 0 0
3:15 am 03:15 Clear 17 -8.3 16 -8.7 97 97 W 3 6 30.56 1035 10 16.0934 0 0
3:35 am 03:35 Clear 19 -7.3 19 -7.5 98 98 W 3 6 30.56 1035 10 16.0934 0 0
3:55 am 03:55 Clear 19 -7 19 -7.4 97 97 W 5 7 30.56 1035 10 16.0934 0 0
4:15 am 04:15 Clear 17 -8.4 16 -8.9 96 96 W 3 6 30.56 1035 10 16.0934 0 0
4:35 am 04:35 Clear 16 -8.9 15 -9.3 97 97 W 3 6 30.53 1034 10 16.0934 0 0
4:55 am 04:55 Clear 15 -9.6 14 -10.1 96 96 Calm 30.56 1035 10 16.0934 0 0
5:15 am 05:15 Clear 14 -9.8 13 -10.3 96 96 Calm 30.56 1035 10 16.0934 0 0
5:35 am 05:35 Clear 16 -9.1 15 -9.3 98 98 WNW 3 6 30.53 1034 10 16.0934 0 0
5:55 am 05:55 Clear 15 -9.3 15 -9.7 97 97 WNW 5 7 30.56 1035 10 16.0934 0 0
6:15 am 06:15 Clear 15 -9.6 14 -10 97 97 Calm 30.56 1035 10 16.0934 0 0
6:35 am 06:35 Clear 16 -9.1 15 -9.3 98 98 NW 5 7 30.53 1034 10 16.0934 0 0
6:55 am 06:55 Clear 16 -8.9 16 -9.1 98 98 WNW 5 7 30.56 1035 10 16.0934 0 0
7:15 am 07:15 Clear 15 -9.3 15 -9.6 98 98 NW 3 6 30.56 1035 10 16.0934 0 0
7:35 am 07:35 Clear 17 -8.6 16 -8.9 98 98 WNW 5 7 30.53 1034 10 16.0934 0 0
7:55 am 07:55 Sunny 17 -8.5 16 -9 96 96 NW 5 7 30.56 1035 10 16.0934 0 0
8:15 am 08:15 Sunny 16 -9 15 -9.5 96 96 Calm 30.59 1036 10 16.0934 0 0
8:35 am 08:35 Sunny 17 -8.1 16 -8.7 96 96 NW 5 7 30.56 1035 10 16.0934 0 0
8:55 am 08:55 Sunny 21 -6.2 19 -7 94 94 WNW 5 7 30.56 1035 10 16.0934 0 0
9:15 am 09:15 Sunny 23 -4.8 22 -5.7 94 94 NW 5 7 30.53 1034 10 16.0934 0 0
9:35 am 09:35 Sunny 27 -2.7 25 -4.1 90 90 NW 3 6 30.5 1033 10 16.0934 0 0
9:55 am 09:55 Sunny 29 -1.5 25 -4 83 83 N 3 6 30.5 1033 10 16.0934 0 0
10:15 am 10:15 Sunny 32 -0.1 25 -4.1 75 75 N 6 9 30.48 1032 10 16.0934 0 0
10:35 am 10:35 Sunny 32 0.1 23 -5.1 68 68 N 6 9 30.48 1032 10 16.0934 0 0
10:55 am 10:55 Sunny 34 1.2 21 -5.9 60 60 N 5 7 30.48 1032 10 16.0934 0 0
11:15 am 11:15 Sunny 35 1.5 19 -7.1 53 53 N 7 11 30.48 1032 10 16.0934 0 0
11:35 am 11:35 Sunny 36 2.1 17 -8.2 47 47 Calm 30.48 1032 10 16.0934 0 0
11:55 am 11:55 Sunny 37 2.8 17 -8.6 43 43 N 6 9 30.48 1032 10 16.0934 0 0
12:15 pm 12:15 Sunny 38 3.4 16 -8.7 41 41 NE 7 11 30.45 1031 10 16.0934 0 0
12:35 pm 12:35 Sunny 39 4.1 17 -8.1 41 41 NNE 6 9 30.45 1031 10 16.0934 0 0
12:55 pm 12:55 Sunny 40 4.6 16 -8.9 37 37 Calm 30.45 1031 10 16.0934 0 0
1:15 pm 13:15 Sunny 42 5.5 16 -8.8 35 35 ENE 3 6 30.42 1030 10 16.0934 0 0
1:35 pm 13:35 Sunny 42 5.8 14 -10 31 31 N 5 7 30.42 1030 10 16.0934 0 0
1:55 pm 13:55 Sunny 44 6.4 13 -10.3 29 29 NNE 6 9 30.39 1029 10 16.0934 0 0
2:15 pm 14:15 Sunny 45 7 14 -10.1 29 29 Calm 30.39 1029 10 16.0934 0 0
2:35 pm 14:35 Sunny 45 7.3 15 -9.7 29 29 N 3 6 30.36 1028 10 16.0934 0 0
2:55 pm 14:55 Sunny 46 7.6 14 -9.9 28 28 Calm 30.36 1028 10 16.0934 0 0
3:15 pm 15:15 Sunny 47 8.6 15 -9.4 27 27 NE 5 7 30.36 1028 10 16.0934 0 0
3:35 pm 15:35 Sunny 47 8.6 15 -9.7 27 27 ENE 7 11 30.3 1026 10 16.0934 0 0
3:55 pm 15:55 Sunny 47 8.6 15 -9.7 27 27 ENE 3 6 30.3 1026 10 16.0934 0 0
4:15 pm 16:15 Sunny 48 8.8 15 -9.7 26 26 Calm 30.3 1026 10 16.0934 0 0
4:35 pm 16:35 Sunny 48 8.9 15 -9.4 27 27 ENE 8 13 30.3 1026 10 16.0934 0 0
4:55 pm 16:55 Sunny 49 9.4 16 -9.1 26 26 E 7 11 30.3 1026 10 16.0934 0 0
5:15 pm 17:15 Sunny 49 9.2 15 -9.2 26 26 NE 3 6 30.3 1026 10 16.0934 0 0
5:35 pm 17:35 Sunny 48 8.8 15 -9.2 27 27 ENE 7 11 30.3 1026 10 16.0934 0 0
5:55 pm 17:55 Partly Cloudy 47 8.6 15 -9.3 27 27 ENE 7 11 30.3 1026 10 16.0934 0 0
6:15 pm 18:15 Partly Cloudy 47 8.5 16 -9 28 28 NE 7 11 30.33 1027 10 16.0934 0 0
6:35 pm 18:35 Mostly Cloudy 47 8.3 17 -8.5 30 30 NE 6 9 30.33 1027 10 16.0934 0 0
6:55 pm 18:55 Mostly Cloudy 47 8.5 17 -8.4 30 30 NNE 6 9 30.33 1027 10 16.0934 0 0
7:15 pm 19:15 Sunny 46 7.7 17 -8.6 31 31 NE 6 9 30.33 1027 10 16.0934 0 0
7:35 pm 19:35 Partly Cloudy 43 5.9 16 -8.9 34 34 ENE 6 9 30.33 1027 10 16.0934 0 0
7:55 pm 19:55 Partly Cloudy 39 3.8 15 -9.5 38 38 NE 6 9 30.36 1028 10 16.0934 0 0
8:15 pm 20:15 Clear 35 1.9 13 -10.5 40 40 NNE 5 7 30.39 1029 7 11.26538 0 0
8:35 pm 20:35 Hazy 33 0.8 13 -10.6 43 43 NE 5 7 30.42 1030 4 6.43736 0 0
8:55 pm 20:55 Clear 34 0.9 14 -10.1 44 44 NE 6 9 30.42 1030 7 11.26538 0 0
9:15 pm 21:15 Clear 31 -0.4 13 -10.5 47 47 ENE 7 11 30.42 1030 7 11.26538 0 0
9:35 pm 21:35 Clear 30 -1.1 14 -10 51 51 ENE 7 11 30.45 1031 10 16.0934 0 0
9:55 pm 21:55 Clear 33 0.3 15 -9.5 48 48 E 8 13 30.42 1030 10 16.0934 0 0
10:15 pm 22:15 Clear 34 1.3 17 -8.6 48 48 E 8 13 30.42 1030 10 16.0934 0 0
10:35 pm 22:35 Clear 35 1.7 17 -8.3 48 48 E 9 15 30.42 1030 10 16.0934 0 0
10:55 pm 22:55 Partly Cloudy 35 1.8 17 -8.2 48 48 E 10 17 30.42 1030 10 16.0934 0 0
11:15 pm 23:15 Partly Cloudy 34 1 17 -8.5 50 50 E 9 15 30.42 1030 10 16.0934 0 0
11:35 pm 23:35 Clear 32 0.1 17 -8.6 52 52 E 6 9 30.42 1030 10 16.0934 0 0
11:55 pm 23:55 Clear 29 -1.4 16 -9.1 56 56 Calm 30.45 1031 10 16.0934 0 0

Powered by AerisWeather